Location: Prague
(50.0830°N, 14.4670°E)
Time: 13:15:06
(UTC+01:00)

XW-2F - Pass Details

Date: 06 December 2021
Orbit: 494 x 515 km, 97.5° (Epoch: 27 January)

Event Time Altitude Azimuth Distance (km) Brightness Sun altitude
Rises 16:36:38 0° 143° (SE) 2,608 ? -5.7°
Reaches altitude 10° 16:38:50 10° 134° (SE) 1,731 ? -6.0°
Maximum altitude 16:42:14 34° 69° (ENE) 857 ? -6.5°
Drops below altitude 10° 16:45:41 10° 3° (N) 1,755 ? -7.0°
Sets 16:47:54 0° 354° (N) 2,651 ? -7.3°
